| time (UTC) | temp C | wind direction | speed KPH | gust KPH | rain 1hr cm | rain 24hr cm | rain mn cm | humidity % | barometer mb |
| 20260509181037 | 26 | 270 | 11.3 | 14.5 | 0.00 | 0.00 | 0.00 | 75 | 1015.5 |
| 20260509180532 | 25 | 288 | 6.4 | 11.3 | 0.00 | 0.00 | 0.00 | 75 | 1015.6 |
| 20260509180030 | 25 | 219 | 12.9 | 17.7 | 0.00 | 0.00 | 0.00 | 75 | 1015.4 |
| 20260509175525 | 25 | 219 | 12.9 | 17.7 | 0.00 | 0.00 | 0.00 | 75 | 1015.5 |
| 20260509175023 | 25 | 219 | 12.9 | 17.7 | 0.00 | 0.00 | 0.00 | 75 | 1015.5 |
| 20260509174519 | 25 | 219 | 12.9 | 17.7 | 0.00 | 0.00 | 0.00 | 75 | 1015.5 |
| 20260509174014 | 26 | 259 | 0.0 | 12.9 | 0.00 | 0.00 | 0.00 | 75 | 1015.5 |
| 20260509173509 | 25 | 251 | 12.9 | 14.5 | 0.00 | 0.00 | 0.00 | 75 | 1015.8 |
| 20260509173005 | 25 | 251 | 12.9 | 14.5 | 0.00 | 0.00 | 0.00 | 75 | 1015.6 |
| 20260509172503 | 25 | 251 | 12.9 | 14.5 | 0.00 | 0.00 | 0.00 | 75 | 1015.7 |
| 20260509171958 | 25 | 250 | 8.0 | 12.9 | 0.00 | 0.00 | 0.00 | 75 | 1016.0 |
| 20260509171454 | 25 | 236 | 14.5 | 17.7 | 0.00 | 0.00 | 0.00 | 75 | 1015.7 |
| 20260509170951 | 25 | 300 | 0.0 | 1.6 | 0.00 | 0.00 | 0.00 | 75 | 1015.7 |
| 20260509170446 | 24 | 262 | 8.0 | 14.5 | 0.00 | 0.00 | 0.00 | 74 | 1015.8 |
| 20260509165942 | 24 | 262 | 14.5 | 17.7 | 0.00 | 0.00 | 0.00 | 75 | 1015.7 |
| 20260509165441 | 24 | 249 | 12.9 | 14.5 | 0.00 | 0.00 | 0.00 | 74 | 1016.0 |
| 20260509164937 | 24 | 254 | 14.5 | 16.1 | 0.00 | 0.00 | 0.00 | 74 | 1015.7 |
| 20260509164433 | 24 | 268 | 11.3 | 17.7 | 0.00 | 0.00 | 0.00 | 74 | 1016.2 |
| 20260509163929 | 24 | 192 | 3.2 | 14.5 | 0.00 | 0.00 | 0.00 | 75 | 1016.0 |
| 20260509163427 | 23 | 268 | 11.3 | 19.3 | 0.00 | 0.00 | 0.00 | 74 | 1015.8 |
| 20260509162926 | 24 | 245 | 6.4 | 8.0 | 0.00 | 0.00 | 0.00 | 74 | 1015.8 |
| 20260509162425 | 24 | 180 | 1.6 | 8.0 | 0.00 | 0.00 | 0.00 | 74 | 1016.1 |
| 20260509161921 | 23 | 249 | 11.3 | 14.5 | 0.00 | 0.00 | 0.00 | 74 | 1016.1 |
| 20260509161417 | 23 | 242 | 8.0 | 9.7 | 0.00 | 0.00 | 0.00 | 74 | 1016.1 |
| 20260509160912 | 23 | 285 | 11.3 | 11.3 | 0.00 | 0.00 | 0.00 | 74 | 1015.8 |
| 20260509160408 | 23 | 248 | 9.7 | 14.5 | 0.00 | 0.00 | 0.00 | 74 | 1015.7 |
| 20260509155903 | 23 | 279 | 12.9 | 12.9 | 0.00 | 0.00 | 0.00 | 74 | 1016.1 |
| 20260509155400 | 23 | 248 | 11.3 | 12.9 | 0.00 | 0.00 | 0.00 | 74 | 1015.8 |
| 20260509154857 | 22 | 259 | 8.0 | 14.5 | 0.00 | 0.00 | 0.00 | 74 | 1016.0 |
| 20260509154353 | 22 | 242 | 14.5 | 16.1 | 0.00 | 0.00 | 0.00 | 74 | 1015.8 |
| 20260509153850 | 22 | 231 | 11.3 | 12.9 | 0.00 | 0.00 | 0.00 | 74 | 1016.0 |
| 20260509153347 | 22 | 291 | 8.0 | 9.7 | 0.00 | 0.00 | 0.00 | 74 | 1015.8 |
| 20260509152844 | 22 | 318 | 4.8 | 4.8 | 0.00 | 0.00 | 0.00 | 74 | 1015.8 |
| 20260509152340 | 22 | 280 | 16.1 | 17.7 | 0.00 | 0.00 | 0.00 | 74 | 1015.8 |
| 20260509151838 | 21 | 295 | 8.0 | 11.3 | 0.00 | 0.00 | 0.00 | 74 | 1016.0 |
| 20260509151333 | 21 | 254 | 8.0 | 9.7 | 0.00 | 0.00 | 0.00 | 74 | 1015.7 |
| 20260509150832 | 21 | 264 | 8.0 | 8.0 | 0.00 | 0.00 | 0.00 | 74 | 1015.8 |
| 20260509150329 | 21 | 255 | 8.0 | 11.3 | 0.00 | 0.00 | 0.00 | 74 | 1015.6 |
| 20260509145827 | 21 | 298 | 4.8 | 8.0 | 0.00 | 0.00 | 0.00 | 74 | 1016.0 |
| 20260509145321 | 21 | 306 | 4.8 | 9.7 | 0.00 | 0.00 | 0.00 | 74 | 1016.1 |
| 20260509144818 | 21 | 303 | 4.8 | 8.0 | 0.00 | 0.00 | 0.00 | 74 | 1016.0 |
| 20260509144315 | 20 | 281 | 4.8 | 8.0 | 0.00 | 0.00 | 0.00 | 74 | 1015.8 |
| 20260509143812 | 20 | 282 | 4.8 | 6.4 | 0.00 | 0.00 | 0.00 | 74 | 1016.0 |
| 20260509143309 | 20 | 265 | 6.4 | 8.0 | 0.00 | 0.00 | 0.00 | 74 | 1015.8 |
| 20260509142805 | 20 | 267 | 9.7 | 12.9 | 0.00 | 0.00 | 0.00 | 73 | 1015.5 |
| 20260509142302 | 20 | 300 | 4.8 | 8.0 | 0.00 | 0.00 | 0.00 | 73 | 1015.8 |
| 20260509141757 | 19 | 270 | 12.9 | 14.5 | 0.00 | 0.00 | 0.00 | 73 | 1015.7 |
| 20260509141254 | 19 | 274 | 8.0 | 12.9 | 0.00 | 0.00 | 0.00 | 73 | 1015.7 |
| 20260509140751 | 19 | 261 | 6.4 | 12.9 | 0.00 | 0.00 | 0.00 | 73 | 1015.4 |
| 20260509140248 | 18 | 256 | 8.0 | 14.5 | 0.00 | 0.00 | 0.00 | 73 | 1015.5 |
| 20260509135746 | 18 | 281 | 9.7 | 12.9 | 0.00 | 0.00 | 0.00 | 73 | 1015.5 |
| 20260509135243 | 18 | 275 | 3.2 | 11.3 | 0.00 | 0.00 | 0.00 | 73 | 1015.4 |
| 20260509134740 | 17 | 283 | 6.4 | 6.4 | 0.00 | 0.00 | 0.00 | 73 | 1015.2 |
| 20260509134238 | 17 | 250 | 12.9 | 14.5 | 0.00 | 0.00 | 0.00 | 73 | 1015.5 |
| 20260509133735 | 17 | 250 | 12.9 | 14.5 | 0.00 | 0.00 | 0.00 | 73 | 1015.4 |
| 20260509133231 | 17 | 276 | 9.7 | 12.9 | 0.00 | 0.00 | 0.00 | 73 | 1015.5 |
| 20260509132730 | 17 | 276 | 9.7 | 12.9 | 0.00 | 0.00 | 0.00 | 73 | 1015.4 |
| 20260509132228 | 17 | 266 | 11.3 | 14.5 | 0.00 | 0.00 | 0.00 | 73 | 1015.4 |
| 20260509131725 | 17 | 325 | 11.3 | 14.5 | 0.00 | 0.00 | 0.00 | 73 | 1015.2 |
| 20260509131221 | 17 | 272 | 12.9 | 12.9 | 0.00 | 0.00 | 0.00 | 73 | 1015.2 |
| 20260509130717 | 16 | 259 | 6.4 | 6.4 | 0.00 | 0.00 | 0.00 | 73 | 1015.2 |
| 20260509130213 | 16 | 259 | 6.4 | 6.4 | 0.00 | 0.00 | 0.00 | 73 | 1015.0 |
| 20260509125710 | 16 | 259 | 6.4 | 6.4 | 0.00 | 0.00 | 0.00 | 73 | 1015.0 |
| 20260509125207 | 15 | 266 | 6.4 | 8.0 | 0.00 | 0.00 | 0.00 | 73 | 1015.3 |
| 20260509124703 | 15 | 270 | 8.0 | 11.3 | 0.00 | 0.00 | 0.00 | 73 | 1015.0 |
| 20260509124200 | 15 | 270 | 8.0 | 11.3 | 0.00 | 0.00 | 0.00 | 73 | 1015.0 |
| 20260509123659 | -17 | 0.0 | 0.0 | 0.00 | 0.00 | 0.00 | 1014.9 | ||
| 20260509123155 | -17 | 0.0 | 0.0 | 0.00 | 0.00 | 0.00 | 1015.1 | ||
| 20260509122650 | -17 | 0.0 | 0.0 | 0.00 | 0.00 | 0.00 | 1015.0 | ||
| 20260509122148 | -17 | 0.0 | 0.0 | 0.00 | 0.00 | 0.00 | 1014.9 | ||
| 20260509121644 | -17 | 0.0 | 0.0 | 0.00 | 0.00 | 0.00 | 1014.9 | ||
| 20260509121142 | -17 | 0.0 | 0.0 | 0.00 | 0.00 | 0.00 | 1015.0 | ||
| 20260509120640 | -17 | 0.0 | 0.0 | 0.00 | 0.00 | 0.00 | 1015.0 | ||
| 20260509120138 | -17 | 0.0 | 0.0 | 0.00 | 0.00 | 0.00 | 1014.9 | ||
| 20260509115635 | -17 | 0.0 | 0.0 | 0.00 | 0.00 | 0.00 | 1014.8 | ||
| 20260509115133 | -17 | 0.0 | 0.0 | 0.00 | 0.00 | 0.00 | 1014.5 | ||
| 20260509114630 | -17 | 0.0 | 0.0 | 0.00 | 0.00 | 0.00 | 1014.5 | ||
| 20260509114129 | -17 | 0.0 | 0.0 | 0.00 | 0.00 | 0.00 | 1014.5 | ||
| 20260509113627 | -17 | 0.0 | 0.0 | 0.00 | 0.00 | 0.00 | 1014.1 | ||
| 20260509113124 | -17 | 0.0 | 0.0 | 0.00 | 0.00 | 0.00 | 1014.3 | ||
| 20260509112620 | -17 | 0.0 | 0.0 | 0.00 | 0.00 | 0.00 | 1014.2 | ||
| 20260509112118 | -17 | 0.0 | 0.0 | 0.00 | 0.00 | 0.00 | 1014.3 | ||
| 20260509111615 | -17 | 0.0 | 0.0 | 0.00 | 0.00 | 0.00 | 1014.4 | ||
| 20260509111111 | -17 | 0.0 | 0.0 | 0.00 | 0.00 | 0.00 | 1014.1 | ||
| 20260509110609 | -17 | 0.0 | 0.0 | 0.00 | 0.00 | 0.00 | 1014.2 | ||
| 20260509110106 | -17 | 0.0 | 0.0 | 0.00 | 0.00 | 0.00 | 1014.1 | ||
| 20260509105604 | -17 | 0.0 | 0.0 | 0.00 | 0.00 | 0.00 | 1014.1 | ||
| 20260509105101 | -17 | 0.0 | 0.0 | 0.00 | 0.00 | 0.00 | 1013.9 | ||
| 20260509104558 | -17 | 0.0 | 0.0 | 0.00 | 0.00 | 0.00 | 1013.9 | ||
| 20260509104055 | -17 | 0.0 | 0.0 | 0.00 | 0.00 | 0.00 | 1014.2 | ||
| 20260509103553 | -17 | 0.0 | 0.0 | 0.00 | 0.00 | 0.00 | 1013.9 | ||
| 20260509103051 | -17 | 0.0 | 0.0 | 0.00 | 0.00 | 0.00 | 1013.9 | ||
| 20260509102548 | -17 | 0.0 | 0.0 | 0.00 | 0.00 | 0.00 | 1013.9 | ||
| 20260509102045 | -17 | 0.0 | 0.0 | 0.00 | 0.00 | 0.00 | 1013.9 | ||
| 20260509101540 | -17 | 0.0 | 0.0 | 0.00 | 0.00 | 0.00 | 1014.0 | ||
| 20260509101037 | -17 | 0.0 | 0.0 | 0.00 | 0.00 | 0.00 | 1013.9 | ||
| 20260509100535 | -17 | 0.0 | 0.0 | 0.00 | 0.00 | 0.00 | 1014.2 | ||
| 20260509100033 | -17 | 0.0 | 0.0 | 0.00 | 0.00 | 0.00 | 1013.9 | ||
| 20260509095529 | -17 | 0.0 | 0.0 | 0.00 | 0.00 | 0.00 | 1014.1 | ||
| 20260509095026 | -17 | 0.0 | 0.0 | 0.00 | 0.00 | 0.00 | 1014.2 | ||
| 20260509094522 | -17 | 0.0 | 0.0 | 0.00 | 0.00 | 0.00 | 1014.2 | ||
| 20260509094020 | -17 | 0.0 | 0.0 | 0.00 | 0.00 | 0.00 | 1014.1 | ||
| 20260509093518 | -17 | 0.0 | 0.0 | 0.00 | 0.00 | 0.00 | 1014.1 | ||
| 20260509093015 | -17 | 0.0 | 0.0 | 0.00 | 0.00 | 0.00 | 1014.2 | ||
| 20260509092513 | -17 | 0.0 | 0.0 | 0.00 | 0.00 | 0.00 | 1014.1 | ||
| 20260509092012 | -17 | 0.0 | 0.0 | 0.00 | 0.00 | 0.00 | 1014.2 | ||
| 20260509091508 | -17 | 0.0 | 0.0 | 0.00 | 0.00 | 0.00 | 1014.3 | ||
| 20260509091005 | -17 | 0.0 | 0.0 | 0.00 | 0.00 | 0.00 | 1014.4 | ||
| 20260509090502 | -17 | 0.0 | 0.0 | 0.00 | 0.00 | 0.00 | 1014.5 | ||
| 20260509090000 | -17 | 0.0 | 0.0 | 0.00 | 0.00 | 0.00 | 1014.2 | ||
| 20260509085457 | -17 | 0.0 | 0.0 | 0.00 | 0.00 | 0.00 | 1014.2 | ||
| 20260509084953 | -17 | 0.0 | 0.0 | 0.00 | 0.00 | 0.00 | 1014.3 | ||
| 20260509084449 | -17 | 0.0 | 0.0 | 0.00 | 0.00 | 0.00 | 1014.0 | ||
| 20260509083946 | -17 | 0.0 | 0.0 | 0.00 | 0.00 | 0.00 | 1014.3 | ||
| 20260509083444 | -17 | 0.0 | 0.0 | 0.00 | 0.00 | 0.00 | 1014.3 | ||
| 20260509082941 | -17 | 0.0 | 0.0 | 0.00 | 0.00 | 0.00 | 1014.1 | ||
| 20260509082438 | -17 | 0.0 | 0.0 | 0.00 | 0.00 | 0.00 | 1014.2 | ||
| 20260509081935 | -17 | 0.0 | 0.0 | 0.00 | 0.00 | 0.00 | 1013.9 | ||
| 20260509081432 | -17 | 0.0 | 0.0 | 0.00 | 0.00 | 0.00 | 1013.8 | ||
| 20260509080930 | -17 | 0.0 | 0.0 | 0.00 | 0.00 | 0.00 | 1013.9 | ||
| 20260509080427 | -17 | 0.0 | 0.0 | 0.00 | 0.00 | 0.00 | 1013.9 | ||
| 20260509075925 | -17 | 0.0 | 0.0 | 0.00 | 0.00 | 0.00 | 1013.9 | ||
| 20260509075422 | -17 | 0.0 | 0.0 | 0.00 | 0.00 | 0.00 | 1013.9 | ||
| 20260509074920 | -17 | 0.0 | 0.0 | 0.00 | 0.00 | 0.00 | 1013.8 | ||
| 20260509074417 | -17 | 0.0 | 0.0 | 0.00 | 0.00 | 0.00 | 1013.9 | ||
| 20260509073913 | -17 | 0.0 | 0.0 | 0.00 | 0.00 | 0.00 | 1013.9 | ||
| 20260509073410 | -17 | 0.0 | 0.0 | 0.00 | 0.00 | 0.00 | 1013.9 | ||
| 20260509072906 | -17 | 0.0 | 0.0 | 0.00 | 0.00 | 0.00 | 1014.0 | ||
| 20260509072403 | -17 | 0.0 | 0.0 | 0.00 | 0.00 | 0.00 | 1014.1 | ||
| 20260509071859 | -17 | 0.0 | 0.0 | 0.00 | 0.00 | 0.00 | 1013.9 | ||
| 20260509071357 | -17 | 0.0 | 0.0 | 0.00 | 0.00 | 0.00 | 1013.9 | ||
| 20260509070854 | -17 | 0.0 | 0.0 | 0.00 | 0.00 | 0.00 | 1013.9 | ||
| 20260509070351 | -17 | 0.0 | 0.0 | 0.00 | 0.00 | 0.00 | 1014.0 | ||
| 20260509065846 | -17 | 0.0 | 0.0 | 0.00 | 0.00 | 0.00 | 1014.0 | ||
| 20260509065343 | -17 | 0.0 | 0.0 | 0.00 | 0.00 | 0.00 | 1013.8 | ||
| 20260509064839 | -17 | 0.0 | 0.0 | 0.00 | 0.00 | 0.00 | 1013.9 | ||
| 20260509064337 | -17 | 0.0 | 0.0 | 0.00 | 0.00 | 0.00 | 1013.7 | ||
| 20260509063834 | -17 | 0.0 | 0.0 | 0.00 | 0.00 | 0.00 | 1013.9 | ||
| 20260509063330 | -17 | 0.0 | 0.0 | 0.00 | 0.00 | 0.00 | 1013.8 | ||
| 20260509062828 | -17 | 0.0 | 0.0 | 0.00 | 0.00 | 0.00 | 1013.6 | ||
| 20260509062324 | -17 | 0.0 | 0.0 | 0.00 | 0.00 | 0.00 | 1013.6 | ||
| 20260509061822 | -17 | 0.0 | 0.0 | 0.00 | 0.00 | 0.00 | 1013.8 | ||
| 20260509061320 | -17 | 0.0 | 0.0 | 0.00 | 0.00 | 0.00 | 1013.8 | ||
| 20260509060816 | -17 | 0.0 | 0.0 | 0.00 | 0.00 | 0.00 | 1013.6 | ||
| 20260509060314 | -17 | 0.0 | 0.0 | 0.00 | 0.00 | 0.00 | 1013.7 | ||
| 20260509055809 | -17 | 0.0 | 0.0 | 0.00 | 0.00 | 0.00 | 1013.7 | ||
| 20260509055306 | -17 | 0.0 | 0.0 | 0.00 | 0.00 | 0.00 | 1013.9 | ||
| 20260509054801 | 17 | 315 | 9.7 | 9.7 | 0.00 | 0.00 | 0.00 | 73 | 1013.9 |
| 20260509054258 | 17 | 315 | 9.7 | 9.7 | 0.00 | 0.00 | 0.00 | 73 | 1014.1 |
| 20260509053757 | 17 | 315 | 9.7 | 9.7 | 0.00 | 0.00 | 0.00 | 73 | 1014.2 |
| 20260509053253 | 17 | 315 | 9.7 | 9.7 | 0.00 | 0.00 | 0.00 | 73 | 1014.2 |
| 20260509052751 | 17 | 315 | 9.7 | 9.7 | 0.00 | 0.00 | 0.00 | 73 | 1014.3 |
| 20260509052249 | 17 | 315 | 9.7 | 9.7 | 0.00 | 0.00 | 0.00 | 73 | 1014.3 |
| 20260509051746 | 17 | 315 | 9.7 | 9.7 | 0.00 | 0.00 | 0.00 | 73 | 1014.2 |
| 20260509051244 | 17 | 315 | 9.7 | 9.7 | 0.00 | 0.00 | 0.00 | 73 | 1014.4 |
| 20260509050740 | 17 | 315 | 9.7 | 9.7 | 0.00 | 0.00 | 0.00 | 73 | 1014.3 |
| 20260509050237 | 17 | 315 | 9.7 | 9.7 | 0.00 | 0.00 | 0.00 | 73 | 1014.3 |
| 20260509045735 | 17 | 315 | 9.7 | 9.7 | 0.00 | 0.00 | 0.00 | 73 | 1014.2 |
| 20260509045231 | 17 | 315 | 9.7 | 9.7 | 0.00 | 0.00 | 0.00 | 73 | 1014.2 |
| 20260509044729 | 17 | 231 | 14.5 | 16.1 | 0.00 | 0.00 | 0.00 | 73 | 1014.2 |
| 20260509044226 | 17 | 231 | 14.5 | 16.1 | 0.00 | 0.00 | 0.00 | 73 | 1014.3 |
| 20260509043722 | 17 | 231 | 14.5 | 16.1 | 0.00 | 0.00 | 0.00 | 73 | 1013.9 |
| 20260509043218 | 17 | 254 | 9.7 | 14.5 | 0.00 | 0.00 | 0.00 | 73 | 1013.8 |
| 20260509042715 | 17 | 199 | 6.4 | 17.7 | 0.00 | 0.00 | 0.00 | 73 | 1014.0 |
| 20260509042211 | 18 | 180 | 4.8 | 16.1 | 0.00 | 0.00 | 0.00 | 73 | 1013.8 |
| 20260509041708 | 18 | 262 | 4.8 | 24.1 | 0.00 | 0.00 | 0.00 | 73 | 1013.7 |
| 20260509041205 | 18 | 209 | 9.7 | 12.9 | 0.00 | 0.00 | 0.00 | 73 | 1013.5 |
| 20260509040704 | 18 | 195 | 12.9 | 16.1 | 0.00 | 0.00 | 0.00 | 73 | 1013.5 |
| 20260509040200 | 18 | 234 | 1.6 | 9.7 | 0.00 | 0.00 | 0.00 | 73 | 1013.7 |
| 20260509035657 | 18 | 239 | 9.7 | 20.9 | 0.00 | 0.00 | 0.00 | 73 | 1013.3 |
| 20260509035153 | 18 | 227 | 12.9 | 17.7 | 0.00 | 0.00 | 0.00 | 73 | 1013.2 |
| 20260509034651 | 18 | 195 | 9.7 | 22.5 | 0.00 | 0.00 | 0.00 | 73 | 1013.0 |
| 20260509034148 | 18 | 197 | 11.3 | 11.3 | 0.00 | 0.00 | 0.00 | 73 | 1013.1 |
| 20260509033645 | 18 | 206 | 9.7 | 14.5 | 0.00 | 0.00 | 0.00 | 73 | 1012.6 |
| 20260509033142 | 18 | 208 | 8.0 | 16.1 | 0.00 | 0.00 | 0.00 | 73 | 1012.6 |
| 20260509032639 | 18 | 203 | 14.5 | 19.3 | 0.00 | 0.00 | 0.00 | 73 | 1012.8 |
| 20260509032136 | 18 | 202 | 14.5 | 16.1 | 0.00 | 0.00 | 0.00 | 73 | 1013.0 |
| 20260509031634 | 18 | 196 | 14.5 | 24.1 | 0.00 | 0.00 | 0.00 | 73 | 1012.8 |
| 20260509031131 | 18 | 208 | 14.5 | 24.1 | 0.00 | 0.00 | 0.00 | 73 | 1012.8 |
| 20260509030629 | 18 | 194 | 6.4 | 22.5 | 0.00 | 0.00 | 0.00 | 73 | 1013.2 |
| 20260509030126 | 18 | 199 | 19.3 | 20.9 | 0.00 | 0.00 | 0.00 | 73 | 1013.3 |
| 20260509025622 | 19 | 179 | 8.0 | 19.3 | 0.00 | 0.00 | 0.00 | 73 | 1013.3 |
| 20260509025118 | 19 | 203 | 9.7 | 22.5 | 0.00 | 0.00 | 0.00 | 73 | 1013.5 |
| 20260509024613 | 19 | 195 | 12.9 | 22.5 | 0.00 | 0.00 | 0.00 | 73 | 1013.0 |
| 20260509024110 | 19 | 146 | 16.1 | 24.1 | 0.00 | 0.00 | 0.00 | 73 | 1013.2 |
| 20260509023608 | 19 | 208 | 17.7 | 22.5 | 0.00 | 0.00 | 0.00 | 73 | 1013.2 |
| 20260509023104 | 19 | 209 | 11.3 | 24.1 | 0.00 | 0.00 | 0.00 | 73 | 1013.1 |
| 20260509022600 | 18 | 195 | 9.7 | 19.3 | 0.00 | 0.00 | 0.00 | 73 | 1013.0 |
| 20260509022059 | 19 | 211 | 14.5 | 19.3 | 0.00 | 0.00 | 0.00 | 73 | 1013.3 |
| 20260509021555 | 19 | 202 | 9.7 | 20.9 | 0.00 | 0.00 | 0.00 | 73 | 1013.2 |
| 20260509021052 | 19 | 180 | 4.8 | 19.3 | 0.00 | 0.00 | 0.00 | 73 | 1013.1 |
| 20260509020551 | 19 | 199 | 12.9 | 22.5 | 0.00 | 0.00 | 0.00 | 73 | 1013.0 |
| 20260509020047 | 19 | 157 | 11.3 | 20.9 | 0.00 | 0.00 | 0.00 | 73 | 1013.2 |
| 20260509015546 | 19 | 206 | 8.0 | 8.0 | 0.00 | 0.00 | 0.00 | 73 | 1013.4 |
| 20260509015043 | 20 | 187 | 14.5 | 22.5 | 0.00 | 0.00 | 0.00 | 73 | 1013.3 |
| 20260509014539 | 20 | 185 | 8.0 | 19.3 | 0.00 | 0.00 | 0.00 | 73 | 1013.2 |
| 20260509014036 | 20 | 180 | 8.0 | 22.5 | 0.00 | 0.00 | 0.00 | 73 | 1013.4 |
| 20260509013533 | 20 | 195 | 9.7 | 14.5 | 0.00 | 0.00 | 0.00 | 74 | 1013.4 |
| 20260509013028 | 20 | 186 | 9.7 | 17.7 | 0.00 | 0.00 | 0.00 | 73 | 1013.4 |
| 20260509012526 | 21 | 166 | 4.8 | 9.7 | 0.00 | 0.00 | 0.00 | 74 | 1013.4 |
| 20260509012022 | 21 | 166 | 4.8 | 9.7 | 0.00 | 0.00 | 0.00 | 74 | 1013.2 |
| 20260509011520 | 21 | 166 | 4.8 | 9.7 | 0.00 | 0.00 | 0.00 | 74 | 1012.7 |
| 20260509011017 | 21 | 166 | 4.8 | 9.7 | 0.00 | 0.00 | 0.00 | 74 | 1012.7 |
| 20260509010515 | 21 | 166 | 4.8 | 9.7 | 0.00 | 0.00 | 0.00 | 74 | 1012.4 |
| 20260509010011 | 21 | 166 | 4.8 | 9.7 | 0.00 | 0.00 | 0.00 | 74 | 1012.8 |
| 20260509005510 | 21 | 195 | 4.8 | 6.4 | 0.00 | 0.00 | 0.00 | 74 | 1013.1 |
| 20260509005009 | 21 | 195 | 4.8 | 6.4 | 0.00 | 0.00 | 0.00 | 74 | 1013.3 |
| 20260509004506 | 21 | 205 | 9.7 | 12.9 | 0.00 | 0.00 | 0.00 | 74 | 1013.2 |
| 20260509004004 | 21 | 203 | 14.5 | 17.7 | 0.00 | 0.00 | 0.00 | 74 | 1013.1 |
| 20260509003502 | 22 | 226 | 11.3 | 17.7 | 0.00 | 0.00 | 0.00 | 74 | 1013.0 |
| 20260509002958 | 22 | 226 | 11.3 | 17.7 | 0.00 | 0.00 | 0.00 | 74 | 1013.3 |
| 20260509002456 | 22 | 226 | 11.3 | 17.7 | 0.00 | 0.00 | 0.00 | 74 | 1013.2 |
| 20260509001953 | 22 | 226 | 11.3 | 17.7 | 0.00 | 0.00 | 0.00 | 74 | 1013.4 |
| 20260509001450 | 22 | 226 | 11.3 | 17.7 | 0.00 | 0.00 | 0.00 | 74 | 1013.2 |
| 20260509000946 | 22 | 217 | 16.1 | 16.1 | 0.00 | 0.00 | 0.00 | 74 | 1013.3 |
| 20260509000447 | 22 | 207 | 6.4 | 16.1 | 0.00 | 0.00 | 0.00 | 74 | 1012.8 |
| 20260508235940 | 22 | 209 | 8.0 | 16.1 | 0.00 | 0.00 | 0.00 | 74 | 1013.0 |
| 20260508235438 | 22 | 222 | 12.9 | 17.7 | 0.00 | 0.00 | 0.00 | 74 | 1012.8 |
| 20260508234934 | 22 | 204 | 12.9 | 20.9 | 0.00 | 0.00 | 0.00 | 74 | 1012.7 |
| 20260508234431 | 23 | 200 | 11.3 | 24.1 | 0.00 | 0.00 | 0.00 | 74 | 1012.8 |
| 20260508233929 | 23 | 205 | 8.0 | 16.1 | 0.00 | 0.00 | 0.00 | 74 | 1012.7 |
| 20260508233429 | 23 | 158 | 14.5 | 24.1 | 0.00 | 0.00 | 0.00 | 74 | 1013.0 |
| 20260508232925 | 23 | 205 | 16.1 | 19.3 | 0.00 | 0.00 | 0.00 | 74 | 1012.6 |
| 20260508232422 | 23 | 214 | 4.8 | 24.1 | 0.00 | 0.00 | 0.00 | 74 | 1012.6 |
| 20260508231919 | 23 | 189 | 9.7 | 12.9 | 0.00 | 0.00 | 0.00 | 74 | 1012.8 |
| 20260508231416 | 23 | 201 | 14.5 | 16.1 | 0.00 | 0.00 | 0.00 | 74 | 1012.8 |
| 20260508230913 | 23 | 209 | 4.8 | 20.9 | 0.00 | 0.00 | 0.00 | 74 | 1013.2 |
| 20260508230410 | 23 | 203 | 4.8 | 9.7 | 0.00 | 0.00 | 0.00 | 74 | 1013.1 |
| 20260508225907 | 23 | 203 | 19.3 | 25.7 | 0.00 | 0.00 | 0.00 | 74 | 1013.2 |
| 20260508225403 | 23 | 200 | 16.1 | 17.7 | 0.00 | 0.00 | 0.00 | 74 | 1013.3 |
| 20260508224901 | 23 | 205 | 11.3 | 16.1 | 0.00 | 0.00 | 0.00 | 74 | 1013.3 |
| 20260508224358 | 24 | 244 | 11.3 | 20.9 | 0.00 | 0.00 | 0.00 | 74 | 1013.3 |
| 20260508223856 | 23 | 194 | 9.7 | 14.5 | 0.00 | 0.00 | 0.00 | 74 | 1013.2 |
| 20260508223353 | 23 | 159 | 9.7 | 17.7 | 0.00 | 0.00 | 0.00 | 74 | 1013.5 |
| 20260508222851 | 23 | 257 | 6.4 | 12.9 | 0.00 | 0.00 | 0.00 | 74 | 1013.5 |
| 20260508222348 | 23 | 208 | 4.8 | 19.3 | 0.00 | 0.00 | 0.00 | 74 | 1013.7 |
| 20260508221844 | 24 | 213 | 14.5 | 24.1 | 0.00 | 0.00 | 0.00 | 74 | 1013.4 |
| 20260508221340 | 23 | 231 | 17.7 | 17.7 | 0.00 | 0.00 | 0.00 | 74 | 1013.5 |
| 20260508220836 | 23 | 213 | 6.4 | 17.7 | 0.00 | 0.00 | 0.00 | 74 | 1013.5 |
| 20260508220333 | 23 | 196 | 12.9 | 14.5 | 0.00 | 0.00 | 0.00 | 74 | 1013.6 |
| 20260508215829 | 23 | 214 | 14.5 | 19.3 | 0.00 | 0.00 | 0.00 | 74 | 1013.4 |
| 20260508215326 | 23 | 195 | 8.0 | 16.1 | 0.00 | 0.00 | 0.00 | 74 | 1013.6 |
| 20260508214823 | 24 | 250 | 6.4 | 16.1 | 0.00 | 0.00 | 0.00 | 75 | 1013.6 |
| 20260508214320 | 23 | 182 | 6.4 | 12.9 | 0.00 | 0.00 | 0.00 | 74 | 1013.6 |
| 20260508213817 | 24 | 148 | 8.0 | 8.0 | 0.00 | 0.00 | 0.00 | 75 | 1013.6 |
| 20260508213314 | 23 | 221 | 11.3 | 17.7 | 0.00 | 0.00 | 0.00 | 74 | 1013.5 |
| 20260508212810 | 24 | 138 | 4.8 | 8.0 | 0.00 | 0.00 | 0.00 | 75 | 1013.7 |
| 20260508212306 | 23 | 244 | 8.0 | 11.3 | 0.00 | 0.00 | 0.00 | 74 | 1013.7 |
| 20260508211802 | 23 | 186 | 8.0 | 20.9 | 0.00 | 0.00 | 0.00 | 74 | 1013.7 |
| 20260508211258 | 23 | 202 | 9.7 | 22.5 | 0.00 | 0.00 | 0.00 | 74 | 1013.9 |
| 20260508210756 | 23 | 249 | 16.1 | 19.3 | 0.00 | 0.00 | 0.00 | 74 | 1013.9 |
| 20260508210252 | 23 | 215 | 11.3 | 14.5 | 0.00 | 0.00 | 0.00 | 74 | 1014.1 |
| 20260508205749 | 23 | 221 | 9.7 | 20.9 | 0.00 | 0.00 | 0.00 | 74 | 1014.0 |
| 20260508205245 | 24 | 233 | 4.8 | 14.5 | 0.00 | 0.00 | 0.00 | 74 | 1014.0 |
| 20260508204742 | 23 | 221 | 8.0 | 11.3 | 0.00 | 0.00 | 0.00 | 74 | 1014.0 |
| 20260508204238 | 23 | 172 | 8.0 | 16.1 | 0.00 | 0.00 | 0.00 | 74 | 1014.2 |
| 20260508203734 | 23 | 207 | 12.9 | 25.7 | 0.00 | 0.00 | 0.00 | 74 | 1014.4 |
| 20260508203231 | 23 | 202 | 6.4 | 8.0 | 0.00 | 0.00 | 0.00 | 74 | 1014.4 |
| 20260508202727 | 24 | 245 | 6.4 | 9.7 | 0.00 | 0.00 | 0.00 | 74 | 1014.6 |
| 20260508202224 | 23 | 213 | 9.7 | 19.3 | 0.00 | 0.00 | 0.00 | 74 | 1014.4 |
| 20260508201721 | 23 | 222 | 16.1 | 19.3 | 0.00 | 0.00 | 0.00 | 74 | 1014.7 |
| 20260508201217 | 23 | 203 | 9.7 | 20.9 | 0.00 | 0.00 | 0.00 | 74 | 1014.6 |
| 20260508200714 | 23 | 198 | 9.7 | 17.7 | 0.00 | 0.00 | 0.00 | 74 | 1014.6 |
| 20260508200211 | 23 | 243 | 14.5 | 19.3 | 0.00 | 0.00 | 0.00 | 74 | 1014.8 |
| 20260508195707 | 22 | 197 | 9.7 | 32.2 | 0.00 | 0.00 | 0.00 | 74 | 1014.8 |
| 20260508195204 | 22 | 207 | 12.9 | 20.9 | 0.00 | 0.00 | 0.00 | 74 | 1015.1 |
| 20260508194700 | 23 | 215 | 11.3 | 12.9 | 0.00 | 0.00 | 0.00 | 74 | 1015.2 |
| 20260508194157 | 23 | 206 | 14.5 | 14.5 | 0.00 | 0.00 | 0.00 | 74 | 1015.3 |
| 20260508193654 | 23 | 205 | 9.7 | 22.5 | 0.00 | 0.00 | 0.00 | 74 | 1015.3 |
| 20260508193151 | 22 | 191 | 11.3 | 17.7 | 0.00 | 0.00 | 0.00 | 74 | 1015.3 |
| 20260508192647 | 22 | 203 | 4.8 | 22.5 | 0.00 | 0.00 | 0.00 | 74 | 1015.2 |
| 20260508192145 | 23 | 220 | 4.8 | 27.4 | 0.00 | 0.00 | 0.00 | 74 | 1015.4 |
| 20260508191642 | 22 | 154 | 8.0 | 20.9 | 0.00 | 0.00 | 0.00 | 74 | 1015.6 |
| 20260508191138 | 22 | 196 | 9.7 | 22.5 | 0.00 | 0.00 | 0.00 | 74 | 1015.6 |
| 20260508190636 | 22 | 200 | 16.1 | 32.2 | 0.00 | 0.00 | 0.00 | 74 | 1015.7 |
| 20260508190132 | 22 | 201 | 11.3 | 16.1 | 0.00 | 0.00 | 0.00 | 74 | 1015.6 |
| 20260508185629 | 22 | 201 | 9.7 | 22.5 | 0.00 | 0.00 | 0.00 | 74 | 1016.0 |
| 20260508185126 | 23 | 255 | 9.7 | 16.1 | 0.00 | 0.00 | 0.00 | 74 | 1015.8 |
| 20260508184623 | 22 | 206 | 4.8 | 24.1 | 0.00 | 0.00 | 0.00 | 74 | 1015.8 |
| 20260508184120 | 21 | 153 | 9.7 | 17.7 | 0.00 | 0.00 | 0.00 | 74 | 1016.1 |
| 20260508183617 | 22 | 201 | 14.5 | 20.9 | 0.00 | 0.00 | 0.00 | 74 | 1016.1 |
| 20260508183113 | 21 | 206 | 11.3 | 17.7 | 0.00 | 0.00 | 0.00 | 74 | 1016.0 |
| 20260508182609 | 21 | 183 | 8.0 | 27.4 | 0.00 | 0.00 | 0.00 | 74 | 1016.5 |
| 20260508182106 | 21 | 206 | 11.3 | 16.1 | 0.00 | 0.00 | 0.00 | 74 | 1016.4 |
| 20260508181601 | 21 | 213 | 12.9 | 19.3 | 0.00 | 0.00 | 0.00 | 74 | 1016.1 |